Monroe, WI

7:51 PM CST on December 06, 2019 (GMT -0600)
Monroe Municipal

Weather History for KEFT - August, 2019

Change the Weather History Date:

Friday, August 23, 2019

  Actual Average Record
Temperature  
Mean Temperature 64 °F -  
Max Temperature 74 °F 69 °F 91 °F (2012)
Min Temperature 55 °F 47 °F 47 °F (1966)
Degree Days  
Heating Degree Days 1    
Growing Degree Days 14 (Base 50)    
Moisture  
Dew Point 54 °F    
Average Humidity 72    
Maximum Humidity 92    
Minimum Humidity 46    
Precipitation  
Precipitation 0.00 in - - ()
Sea Level Pressure  
Sea Level Pressure 30.21 in    
Wind  
Wind Speed 6 mph (ENE)    
Max Wind Speed 13 mph    
Max Gust Speed 16 mph    
Visibility 10 miles    
Events      
Averages and records for this station are not official NWS values.
T = Trace of Precipitation, MM = Missing Value Source: NWS Daily Summary

Daily Weather History Graph

Daily Weather History Graph

Search for Another Location

Airport or City:

Astronomy

Aug. 23, 2019 Rise Set
Actual Time 6:13 AM CDT 7:47 PM CDT
Civil Twilight 5:43 AM CDT 8:17 PM CDT
Nautical Twilight 5:07 AM CDT 8:53 PM CDT
Astronomical Twilight 4:29 AM CDT 9:31 PM CDT
Moon No Moon Rise 2:00 PM CDT (8/23)
Length of Visible Light 14h 33m
Length of Day
13h 34m
Waning Gibbous, 49% of the Moon is Illuminated
Aug 23
Waning Gibbous
Aug 30
New
Sep 5
First Quarter
Sep 13
Full
Sep 21
Last Quarter

Hourly Weather History & Observations

Time (CDT) Temp. Dew Point Humidity Pressure Visibility Wind Dir Wind Speed Gust Speed Precip Events Conditions
12:15 AM 59.0 °F 54.5 °F 85% 30.12 in 10.0 mi NE 5.8 mph - N/A   Scattered Clouds
12:35 AM 59.4 °F 54.7 °F 84% 30.13 in 10.0 mi ENE 4.6 mph - N/A   Mostly Cloudy
12:55 AM 59.4 °F 54.5 °F 84% 30.14 in 10.0 mi NE 3.5 mph - N/A   Mostly Cloudy
1:15 AM 58.6 °F 54.5 °F 86% 30.14 in 10.0 mi ENE 3.5 mph - N/A   Scattered Clouds
1:35 AM 59.0 °F 54.5 °F 85% 30.14 in 10.0 mi ENE 3.5 mph - N/A   Clear
1:55 AM 59.0 °F 54.5 °F 85% 30.15 in 10.0 mi NE 3.5 mph - N/A   Clear
2:15 AM 58.3 °F 54.3 °F 87% 30.15 in 10.0 mi NE 4.6 mph - N/A   Clear
2:35 AM 57.4 °F 54.7 °F 91% 30.15 in 10.0 mi NE 5.8 mph - N/A   Clear
3:15 AM 57.2 °F 54.5 °F 91% 30.15 in 10.0 mi NE 6.9 mph - N/A   Clear
3:35 AM 57.0 °F 54.3 °F 91% 30.15 in 10.0 mi NE 5.8 mph - N/A   Clear
3:55 AM 57.2 °F 54.0 °F 89% 30.15 in 10.0 mi ENE 5.8 mph - N/A   Clear
4:15 AM 56.1 °F 53.6 °F 91% 30.15 in 10.0 mi NE 6.9 mph - N/A   Clear
4:35 AM 56.3 °F 54.1 °F 92% 30.15 in 10.0 mi NE 6.9 mph - N/A   Clear
4:55 AM 55.8 °F 53.6 °F 92% 30.16 in 10.0 mi NNE 8.1 mph - N/A   Clear
5:15 AM 55.4 °F 53.2 °F 92% 30.16 in 10.0 mi NE 8.1 mph - N/A   Clear
5:35 AM 56.1 °F 53.8 °F 92% 30.16 in 10.0 mi NE 8.1 mph - N/A   Clear
5:55 AM 56.3 °F 53.8 °F 91% 30.16 in 10.0 mi NE 8.1 mph - N/A   Clear
6:15 AM 56.7 °F 53.8 °F 90% 30.17 in 10.0 mi NE 6.9 mph - N/A   Clear
6:35 AM 56.3 °F 53.6 °F 91% 30.19 in 10.0 mi NE 4.6 mph - N/A   Clear
6:55 AM 56.7 °F 54.1 °F 91% 30.19 in 10.0 mi NE 5.8 mph - N/A   Clear
7:15 AM 57.4 °F 54.5 °F 90% 30.19 in 10.0 mi ENE 4.6 mph - N/A   Clear
7:35 AM 58.5 °F 55.0 °F 88% 30.20 in 10.0 mi NE 3.5 mph - N/A   Clear
8:15 AM 61.2 °F 55.2 °F 81% 30.22 in 10.0 mi NE 6.9 mph - N/A   Clear
8:35 AM 62.8 °F 55.8 °F 78% 30.23 in 10.0 mi NE 5.8 mph - N/A   Clear
8:55 AM 64.2 °F 55.6 °F 73% 30.23 in 10.0 mi East 9.2 mph - N/A   Clear
9:15 AM 65.5 °F 55.6 °F 70% 30.23 in 10.0 mi ENE 6.9 mph - N/A   Clear
9:35 AM 66.4 °F 54.9 °F 66% 30.23 in 10.0 mi ENE 9.2 mph - N/A   Clear
9:55 AM 67.3 °F 54.9 °F 64% 30.24 in 10.0 mi East 8.1 mph - N/A   Mostly Cloudy
10:15 AM 68.9 °F 54.7 °F 60% 30.25 in 10.0 mi East 8.1 mph - N/A   Overcast
10:35 AM 68.0 °F 54.9 °F 63% 30.25 in 10.0 mi ENE 6.9 mph - N/A   Overcast
10:55 AM 68.9 °F 54.9 °F 61% 30.25 in 10.0 mi ENE 5.8 mph - N/A   Overcast
11:15 AM 69.6 °F 54.7 °F 59% 30.25 in 10.0 mi ENE 5.8 mph 16.1 mph N/A   Overcast
11:35 AM 69.4 °F 55.0 °F 60% 30.25 in 10.0 mi ENE 8.1 mph - N/A   Overcast
11:55 AM 70.9 °F 55.4 °F 58% 30.24 in 10.0 mi East 8.1 mph - N/A   Overcast
12:15 PM 70.7 °F 55.4 °F 58% 30.23 in 10.0 mi East 9.2 mph - N/A   Scattered Clouds
12:35 PM 71.8 °F 55.6 °F 57% 30.23 in 10.0 mi East 8.1 mph - N/A   Scattered Clouds
12:55 PM 71.2 °F 55.4 °F 57% 30.23 in 10.0 mi ENE 8.1 mph - N/A   Mostly Cloudy
1:15 PM 70.9 °F 54.9 °F 57% 30.23 in 10.0 mi NE 6.9 mph - N/A   Mostly Cloudy
1:35 PM 72.1 °F 55.0 °F 55% 30.22 in 10.0 mi ENE 9.2 mph - N/A   Scattered Clouds
1:55 PM 70.5 °F 55.2 °F 58% 30.22 in 10.0 mi NE 6.9 mph - N/A   Mostly Cloudy
2:15 PM 72.7 °F 54.9 °F 53% 30.22 in 10.0 mi NE 10.4 mph 16.1 mph N/A   Scattered Clouds
2:35 PM 73.4 °F 53.1 °F 49% 30.22 in 10.0 mi ENE 5.8 mph - N/A   Mostly Cloudy
2:55 PM 72.3 °F 54.1 °F 53% 30.22 in 10.0 mi NE 6.9 mph - N/A   Overcast
3:15 PM 72.1 °F 54.5 °F 54% 30.22 in 10.0 mi NE 6.9 mph - N/A   Mostly Cloudy
3:35 PM 73.8 °F 52.5 °F 47% 30.22 in 10.0 mi NE 4.6 mph - N/A   Scattered Clouds
3:55 PM 70.9 °F 52.9 °F 53% 30.22 in 10.0 mi NE 6.9 mph - N/A   Scattered Clouds
4:15 PM 73.9 °F 52.2 °F 46% 30.21 in 10.0 mi NNE 10.4 mph - N/A   Scattered Clouds
4:35 PM 71.4 °F 52.9 °F 52% 30.21 in 10.0 mi NE 6.9 mph - N/A   Overcast
4:55 PM 72.0 °F 54.7 °F 54% 30.21 in 10.0 mi NE 12.7 mph 16.1 mph N/A   Scattered Clouds
5:15 PM 72.1 °F 54.5 °F 54% 30.21 in 10.0 mi NE 11.5 mph - N/A   Scattered Clouds
5:35 PM 71.6 °F 52.3 °F 51% 30.21 in 10.0 mi ENE 8.1 mph - N/A   Clear
5:55 PM 71.2 °F 54.0 °F 54% 30.21 in 10.0 mi East 8.1 mph - N/A   Clear
6:15 PM 70.9 °F 54.9 °F 57% 30.21 in 10.0 mi East 4.6 mph - N/A   Scattered Clouds
6:35 PM 70.3 °F 54.5 °F 57% 30.21 in 10.0 mi ENE 6.9 mph - N/A   Scattered Clouds
6:55 PM 68.5 °F 55.0 °F 62% 30.22 in 10.0 mi ENE 4.6 mph - N/A   Clear
7:15 PM 67.1 °F 55.0 °F 65% 30.22 in 10.0 mi ENE 4.6 mph - N/A   Clear
7:35 PM 66.2 °F 55.0 °F 67% 30.22 in 10.0 mi ENE 5.8 mph - N/A   Scattered Clouds
7:55 PM 65.3 °F 54.5 °F 68% 30.22 in 10.0 mi ENE 5.8 mph - N/A   Mostly Cloudy
8:15 PM 64.2 °F 54.5 °F 71% 30.22 in 10.0 mi ENE 4.6 mph - N/A   Scattered Clouds
8:35 PM 63.5 °F 54.5 °F 72% 30.22 in 10.0 mi ENE 5.8 mph - N/A   Clear
8:55 PM 62.8 °F 54.5 °F 74% 30.23 in 10.0 mi East 4.6 mph - N/A   Clear
9:15 PM 62.1 °F 54.5 °F 76% 30.24 in 10.0 mi East 4.6 mph - N/A   Clear
9:35 PM 61.0 °F 54.0 °F 78% 30.25 in 10.0 mi East 4.6 mph - N/A   Clear
9:55 PM 60.8 °F 53.6 °F 77% 30.25 in 10.0 mi East 4.6 mph - N/A   Clear
10:15 PM 60.3 °F 52.9 °F 77% 30.26 in 10.0 mi East 4.6 mph - N/A   Clear
10:35 PM 59.9 °F 52.7 °F 77% 30.26 in 10.0 mi East 5.8 mph - N/A   Clear
10:55 PM 59.2 °F 52.3 °F 78% 30.26 in 10.0 mi East 5.8 mph - N/A   Clear
11:15 PM 58.6 °F 52.0 °F 79% 30.26 in 10.0 mi East 5.8 mph - N/A   Clear
11:35 PM 58.1 °F 51.8 °F 80% 30.26 in 10.0 mi East 5.8 mph - N/A   Clear
11:55 PM 57.4 °F 51.6 °F 81% 30.26 in 10.0 mi ENE 3.5 mph - N/A   Clear